SCP
0 0 0 0 0 0 0 0 0 0 0 0 0 0 0 0 0 0 0 1 1 1 2 2 2 2 1 1 1 1 1 2 2 1 1 1 1 1 1 1 1 1 1 1 1 1 2 2 2
0 0 0 0 0 0 0 0 0 0 0 0 0 0 0 0 0 0 0 1 1 1 2 2 2 2 1 1 1 1 1 2 2 1 1 1 1 1 1 1 1 1 1 1 1 1 2 2 2
0 0 0 0 0 0 0 0 0 0 0 0 0 0 0 0 0 0 1 1 1 1 2 2 2 2 1 1 1 1 1 1 2 1 1 1 1 1 1 1 1 1 1 1 1 1 1 2 2
0 0 0 0 0 0 0 0 0 0 0 0 0 1 1 1 0 0 1 1 1 1 2 2 2 2 2 1 1 1 1 1 1 1 1 1 1 1 1 1 1 1 1 1 1 1 1 2 2
0 0 0 0 0 0 0 0 0 0 0 0 1 1 1 1 1 1 1 1 1 1 2 2 2 2 2 2 1 1 2 2 2 1 1 1 1 1 1 1 1 1 1 2 2 2 1 2 2
0 0 0 0 0 0 0 0 0 0 0 0 0 1 1 1 1 1 1 1 1 1 1 2 2 2 2 2 2 1 2 2 2 1 1 1 1 1 1 0 0 1 1 3 3 2 2 2 2
0 0 0 0 0 0 0 0 0 0 0 0 0 1 1 1 1 1 1 1 1 1 1 2 2 3 2 2 2 2 2 2 2 1 1 1 1 1 1 0 1 1 1 2 3 3 2 2 2
0 0 0 0 0 0 0 0 0 0 0 0 0 0 1 2 2 1 1 1 1 1 1 1 2 2 2 2 2 2 2 2 1 1 1 1 1 1 0 1 1 1 1 1 2 2 2 2 1
0 0 0 0 0 0 0 0 0 1 1 1 1 1 1 2 2 2 1 1 1 1 1 1 2 2 2 2 2 2 2 2 1 1 1 1 1 0 0 1 1 1 1 1 2 2 2 1 1
0 0 0 0 0 0 0 0 0 1 1 1 1 1 2 3 3 2 2 1 1 1 1 1 2 2 2 2 2 2 2 1 1 1 1 1 1 1 0 1 1 1 1 1 2 2 2 1 1
0 0 0 0 0 0 0 0 0 1 1 1 1 2 2 3 3 2 2 1 1 2 1 1 2 2 2 2 2 2 2 1 1 1 1 1 1 1 1 1 1 1 1 1 1 1 1 1 1
0 0 0 0 0 0 0 0 1 1 1 1 1 2 3 3 3 2 1 1 2 2 2 2 2 2 2 2 2 2 2 1 1 1 1 1 1 1 1 1 1 1 1 1 1 2 2 2 2
0 0 0 0 0 0 0 1 1 1 1 1 1 2 3 3 3 2 2 2 2 3 2 2 2 2 2 2 2 2 2 1 1 1 1 2 1 1 1 1 1 1 1 2 2 2 2 2 1
0 0 0 0 0 0 0 1 1 1 1 1 1 2 3 3 3 3 3 4 4 3 3 3 2 2 2 2 3 2 2 1 1 1 2 2 2 1 1 1 1 1 1 2 2 2 1 1 1
0 0 0 0 0 0 0 1 1 1 1 1 2 2 3 3 3 3 4 4 4 3 3 3 3 3 3 3 3 2 2 1 1 1 2 2 2 2 2 2 2 1 1 2 2 1 1 1 1
0 0 0 0 0 0 0 1 2 2 1 1 2 2 3 3 3 3 3 4 3 3 3 3 3 4 4 4 4 3 2 2 1 1 1 2 2 2 2 2 2 2 2 2 2 2 1 1 1
0 0 0 0 1 1 1 1 2 2 1 1 2 2 2 2 3 3 3 3 3 3 3 4 4 5 5 5 4 3 3 2 2 2 2 2 2 2 2 2 2 2 2 2 2 2 2 2 2
0 0 0 0 1 1 1 2 2 2 2 2 2 2 2 3 3 3 3 3 3 3 3 4 5 5 5 5 5 4 4 3 3 2 2 2 2 2 2 2 2 2 2 2 2 2 2 2 2
0 0 0 0 1 1 1 2 2 3 4 4 3 3 2 3 3 3 3 3 3 3 4 5 5 5 6 6 5 4 5 5 4 3 3 3 3 3 3 3 3 2 2 2 2 2 2 2 2
0 0 0 0 1 1 1 1 2 3 4 5 5 4 3 3 3 3 4 4 4 4 5 5 4 6 7 7 6 5 5 4 4 4 4 4 3 3 4 4 4 3 3 2 2 2 2 2 2
0 0 0 0 1 1 1 1 2 2 3 4 5 5 4 4 4 4 5 5 5 4 5 4 4 5 6 7 6 6 5 4 4 4 5 4 4 4 5 6 5 4 3 3 2 2 2 2 2
0 0 0 0 0 1 1 1 1 2 2 3 4 4 4 4 4 5 5 5 4 4 4 4 4 4 5 6 7 7 6 4 4 4 5 5 5 5 6 7 6 5 4 3 2 2 2 2 2
0 0 0 0 0 0 1 1 1 1 1 2 3 3 3 4 4 4 4 3 3 3 4 4 4 4 4 5 7 8 7 5 4 4 4 4 5 5 6 6 6 4 4 3 3 2 2 2 2
0 0 0 0 0 0 1 1 1 1 1 1 2 2 2 3 3 3 3 3 3 3 4 4 4 4 4 4 6 7 8 7 6 5 5 4 5 5 6 6 5 5 4 4 3 3 3 3 2
0 0 0 0 0 0 1 1 1 1 1 1 1 1 2 2 3 2 2 3 3 3 4 4 4 4 3 3 4 5 7 7 7 7 7 6 6 6 5 5 5 5 5 4 4 4 3 3 3
0 0 0 0 0 0 1 1 1 1 1 1 1 2 2 2 2 2 2 3 3 3 3 3 3 3 3 3 3 4 4 6 7 8 8 8 7 6 5 4 5 6 6 5 5 4 4 4 4
0 0 0 0 0 0 1 1 2 1 1 1 1 2 3 4 4 3 2 2 2 3 3 3 2 2 2 3 3 3 3 4 5 7 8 8 8 7 6 4 4 5 6 6 6 5 5 5 5
0 0 0 0 0 0 1 1 2 2 1 1 1 2 3 5 5 4 3 2 2 2 3 2 2 2 2 2 2 2 2 3 4 5 7 8 9 9 8 7 5 5 6 7 7 6 6 6 6
0 0 0 0 0 0 0 1 1 2 2 1 1 1 2 4 5 5 4 3 3 3 3 3 2 2 2 2 2 2 2 3 3 4 5 8 9 10 10 9 8 7 7 8 8 7 7 7 7
0 0 0 0 0 0 0 1 1 2 2 2 2 2 2 3 3 4 4 3 3 3 3 3 2 2 2 3 3 3 3 4 4 4 5 6 9 11 11 10 9 9 9 9 8 8 8 8 8
Wind_Speed
10 9 7 6 7 2 7 7 5 5 5 5 4 3 5 7 7 8 7 8 8 9 10 11 8 7 7 7 7 7 7 7 7 6 6 6 6 6 6 5 6 6 6 7 7 7 7 7 7
7 6 7 7 5 3 7 6 6 7 5 5 4 3 4 7 7 7 8 8 9 9 9 9 9 7 7 7 6 7 7 7 6 6 5 5 6 6 5 5 6 6 6 6 7 7 8 8 7
7 7 7 5 1 3 7 6 6 6 5 3 4 4 5 6 5 6 8 10 9 9 9 10 8 7 7 7 7 7 6 6 6 6 5 5 5 5 5 5 5 5 5 6 6 7 7 7 7
6 7 6 4 3 5 5 5 4 4 5 3 3 6 6 6 4 7 10 10 10 10 9 12 8 7 7 7 7 7 6 5 5 5 5 5 4 4 4 4 4 4 4 5 6 6 6 7 6
7 6 5 3 4 5 3 3 1 2 3 3 2 5 7 6 6 10 10 10 9 9 8 12 9 7 7 6 6 6 6 5 5 5 5 4 4 3 3 3 3 3 4 4 5 5 6 6 6
6 6 5 4 5 5 3 1 2 2 3 4 3 5 7 7 8 10 10 9 9 9 9 10 10 8 7 6 6 6 5 5 4 4 4 4 4 3 2 2 2 2 3 5 5 5 6 6 6
7 5 3 2 4 5 3 1 1 1 3 4 3 4 8 8 8 10 9 8 8 8 8 8 9 9 8 7 6 5 4 4 4 3 4 4 3 3 2 2 2 1 3 5 6 6 6 6 6
6 5 4 3 3 4 4 2 1 1 2 4 3 3 7 10 9 10 9 8 8 7 6 6 6 6 7 8 7 5 4 3 3 3 3 2 2 2 2 2 3 3 4 6 7 6 7 6 6
7 7 4 3 2 3 4 3 2 1 3 4 2 2 8 13 12 10 9 8 8 7 6 6 6 5 4 5 7 6 6 4 4 4 2 2 1 2 2 6 6 6 6 7 7 7 7 6 7
6 6 1 2 1 1 2 2 2 5 6 5 5 6 11 13 12 11 10 10 9 8 7 5 5 5 4 3 4 3 3 4 2 1 2 1 2 2 3 7 6 5 6 7 7 7 7 5 5
5 4 1 1 0 1 2 2 2 5 4 3 5 10 13 13 12 11 10 9 8 8 7 5 5 4 3 3 2 1 1 2 2 2 1 1 0 1 1 1 4 4 4 4 6 6 3 3 3
4 2 2 1 1 3 3 2 3 3 1 1 3 9 13 13 11 10 9 9 8 8 7 5 5 4 3 2 2 2 1 1 1 2 0 1 0 1 1 1 2 1 2 2 2 2 4 4 4
5 2 2 3 3 3 3 3 2 1 1 1 4 9 11 11 10 9 8 7 7 7 6 6 5 4 3 2 1 2 1 1 2 1 1 0 0 1 1 1 1 1 2 2 2 3 4 3 4
2 3 3 3 3 3 4 3 3 1 1 4 6 9 10 10 9 8 8 7 7 6 6 5 5 4 3 3 2 1 1 1 1 1 1 0 0 1 0 1 1 1 1 2 1 3 3 2 3
4 6 6 4 4 3 4 5 3 1 3 5 6 7 8 9 9 8 7 7 7 6 6 5 5 4 4 3 2 2 1 2 1 1 2 1 0 1 0 1 1 1 2 2 1 2 2 2 3
8 9 7 5 4 4 8 4 4 3 5 5 6 6 7 7 8 7 7 6 6 6 6 5 4 5 4 3 2 1 1 1 1 1 2 2 1 0 1 0 1 1 1 1 2 1 2 2 2
9 8 6 5 4 3 6 3 4 3 4 5 6 7 7 8 8 7 6 6 6 5 5 4 4 4 4 3 2 1 1 1 1 1 1 2 2 1 1 0 1 1 1 1 1 2 1 2 2
6 6 6 4 4 4 5 4 2 3 4 5 6 7 7 8 7 6 6 6 5 5 5 4 4 3 3 3 2 2 1 1 1 1 1 1 2 2 1 1 1 1 1 1 1 1 1 1 1
5 7 6 3 2 5 5 5 3 3 5 5 6 7 7 7 6 6 6 5 5 5 5 5 4 4 3 2 2 2 2 2 2 2 2 2 2 2 2 1 2 1 2 1 2 2 3 2 1
8 8 6 3 3 4 5 5 3 3 5 5 5 6 7 7 7 6 6 5 5 5 5 5 4 4 4 2 1 1 1 1 1 1 2 2 2 2 2 2 2 2 2 3 2 2 1 1 1
9 8 6 4 4 7 6 7 6 5 5 4 5 5 6 6 7 7 6 5 5 5 5 4 4 4 3 3 2 1 1 2 2 2 2 2 2 2 2 2 2 1 2 2 2 3 3 2 2
8 5 7 6 8 6 7 7 6 6 6 6 6 6 6 7 6 6 6 5 5 6 5 5 5 4 3 3 3 3 2 2 1 1 1 2 2 2 2 3 2 2 2 2 3 3 2 2 2
5 4 7 8 9 8 8 9 4 6 6 5 5 5 6 6 6 6 5 5 5 5 4 4 4 4 3 2 2 3 3 2 2 2 1 1 2 2 2 2 2 3 2 2 2 2 3 2 2
5 6 7 9 9 10 7 9 5 4 4 4 3 4 5 5 6 5 5 5 5 5 4 4 4 3 3 3 2 2 2 2 2 2 2 2 2 1 2 2 2 2 2 2 3 2 4 3 2
9 8 7 8 9 7 5 7 2 1 1 2 2 4 5 5 5 6 6 6 5 5 4 4 4 3 3 3 2 2 2 3 3 3 2 2 2 2 2 2 2 2 2 2 2 3 3 3 3
9 10 8 7 7 4 6 6 2 3 2 2 2 4 4 5 5 5 6 6 5 6 5 4 4 3 3 3 2 2 2 2 2 2 2 2 2 1 1 2 2 2 2 2 2 3 3 3 4
8 9 8 9 9 8 5 4 4 4 3 3 3 4 4 4 5 4 5 5 5 5 5 4 4 3 3 2 2 2 2 2 1 1 2 1 1 1 1 2 3 3 2 3 3 3 3 3 4
7 6 6 9 7 9 6 7 3 5 4 3 3 4 4 4 4 4 4 4 4 5 5 4 3 3 3 3 2 2 2 1 1 1 1 1 1 1 2 2 3 3 3 3 3 4 4 3 3
7 8 7 7 7 9 7 2 2 2 3 3 3 3 3 4 4 4 4 4 4 4 4 4 4 3 3 2 2 2 2 1 1 1 1 1 2 2 3 3 3 3 4 4 4 4 4 4 4
7 7 7 7 7 8 8 0 4 3 4 3 3 3 3 3 3 4 4 4 4 4 4 4 3 3 3 2 2 2 1 1 2 2 2 2 2 3 3 3 4 4 4 4 4 5 5 4 5
Wind_Direction
183 191 217 235 234 188 84 78 64 72 74 68 62 39 39 31 20 56 96 125 128 127 124 134 130 131 129 125 122 117 114 112 108 107 105 102 99 94 90 89 90 94 96 99 106 111 109 107 105
188 202 230 241 253 121 92 81 72 58 77 110 108 81 72 70 54 90 119 127 136 130 129 126 126 129 125 121 121 120 118 116 112 110 108 102 99 97 95 94 96 98 98 98 103 107 106 105 104
202 233 257 249 258 71 91 88 81 88 107 135 111 66 50 67 89 108 118 138 138 132 132 121 131 128 125 122 119 119 116 113 110 108 106 100 94 90 93 98 99 100 100 102 105 106 105 105 106
225 224 235 244 124 76 73 85 102 133 131 120 121 103 88 66 94 112 130 141 140 141 139 123 135 131 128 124 120 118 115 112 106 102 101 97 92 84 86 96 97 100 105 109 111 112 110 107 107
240 249 227 188 125 97 84 79 153 173 139 128 139 106 101 95 100 121 137 145 146 142 137 128 134 134 130 125 120 117 114 106 99 95 90 86 82 78 75 87 94 103 112 114 115 116 116 111 108
232 240 233 178 137 122 125 125 187 175 138 137 151 125 103 114 129 136 142 147 144 143 139 130 137 138 132 128 124 120 115 107 95 87 84 79 71 63 60 66 83 111 131 130 122 115 114 111 108
260 249 244 181 148 148 115 131 212 151 162 150 160 135 119 135 137 143 144 145 144 144 143 145 147 149 149 139 133 130 124 115 102 87 77 76 70 59 55 51 57 109 140 141 132 121 116 112 110
276 255 210 187 183 138 121 166 199 232 147 115 177 166 136 142 147 147 144 146 145 146 147 147 146 150 160 151 145 144 137 126 113 94 83 81 112 101 63 91 80 96 118 133 131 126 123 121 117
253 245 209 176 182 126 136 178 149 155 154 156 160 61 111 138 151 153 153 154 154 155 155 158 151 155 168 152 142 161 160 155 169 153 144 225 166 101 116 65 78 88 101 120 125 128 135 142 134
241 244 187 55 23 103 161 204 168 187 181 172 150 123 130 148 159 165 167 167 165 166 167 164 157 161 164 149 141 171 171 153 187 126 142 150 51 25 43 86 86 89 106 127 129 137 155 174 138
240 268 62 153 314 278 227 208 197 218 198 191 170 152 154 162 169 175 176 174 168 164 169 168 161 163 165 152 152 158 161 148 162 136 142 75 22 82 63 106 132 131 140 136 137 154 139 120 101
234 244 279 261 259 256 250 228 213 245 317 22 163 159 162 173 179 182 182 178 169 169 172 171 167 168 176 167 158 165 165 149 143 128 203 123 70 25 50 39 59 99 101 98 109 113 112 107 105
222 216 230 252 247 255 247 233 235 267 313 117 149 162 170 177 181 182 183 179 172 171 172 169 173 167 172 179 206 161 159 141 119 115 114 38 121 55 80 73 54 53 77 113 118 103 104 113 116
222 242 236 229 223 213 222 210 216 247 142 156 159 169 173 174 177 177 179 175 174 175 173 167 176 168 175 173 183 145 149 137 137 116 93 89 64 65 71 115 80 71 76 68 97 105 114 103 98
222 226 209 197 208 192 223 208 201 149 163 165 166 167 168 173 176 178 176 177 174 173 169 168 174 165 177 178 179 168 171 163 167 132 128 148 177 118 230 101 116 78 99 112 117 120 122 121 118
213 224 212 160 197 192 237 219 125 147 174 172 170 168 170 171 179 174 170 172 171 168 164 170 172 164 169 169 176 183 175 152 168 174 152 150 154 203 246 142 113 105 139 126 128 146 137 123 127
210 225 220 164 175 204 237 239 123 155 185 185 179 174 175 172 178 171 169 170 169 162 157 161 164 163 163 164 161 156 148 176 199 196 182 152 178 189 227 178 103 185 160 142 153 123 138 138 139
221 232 226 214 160 211 226 236 170 184 200 195 186 180 180 178 179 171 171 167 158 156 156 157 162 158 166 166 166 164 172 181 204 187 169 183 183 185 213 182 153 190 160 143 116 133 137 151 159
257 250 242 224 168 236 233 241 231 194 204 207 194 187 184 179 173 170 173 168 160 153 152 161 160 157 172 181 206 195 193 194 190 182 160 192 193 178 214 214 155 200 164 170 176 184 166 159 166
242 243 238 203 177 248 246 252 239 217 214 219 209 197 191 181 174 173 173 169 167 158 157 156 156 163 184 178 213 232 239 224 203 165 141 188 199 211 193 213 206 183 177 175 177 192 200 160 171
238 249 254 252 225 218 240 239 216 194 197 205 213 206 193 189 183 178 171 168 159 151 156 153 151 163 184 180 187 184 196 216 191 189 179 194 193 205 221 204 228 212 213 174 190 194 191 194 176
236 242 258 247 247 234 237 257 206 196 196 202 206 201 195 190 186 182 174 169 161 155 155 151 149 150 160 185 196 196 209 215 218 224 177 185 194 202 202 208 213 232 224 194 205 186 202 208 201
262 254 248 247 252 256 233 259 207 190 211 204 203 199 193 186 181 179 175 173 161 151 149 144 145 144 150 183 192 210 221 219 210 205 166 202 181 206 207 207 214 219 226 205 207 201 216 210 226
236 227 230 236 242 243 236 253 231 192 212 192 177 176 176 172 168 166 166 167 157 152 148 146 149 149 158 173 174 203 213 214 222 218 204 210 201 211 210 209 214 221 227 210 203 214 209 212 217
228 236 232 225 226 236 207 241 241 107 144 182 174 160 161 163 162 164 168 163 156 152 154 156 155 158 172 174 178 188 203 206 210 226 224 248 236 216 224 223 212 221 221 216 207 208 226 212 211
225 243 257 267 260 240 202 230 143 111 117 135 151 152 154 164 166 169 169 165 163 161 163 160 157 163 171 175 179 186 205 219 204 218 239 226 246 266 259 231 219 214 212 215 208 213 217 216 225
227 237 267 272 271 266 233 197 161 156 153 143 145 154 162 165 164 166 165 167 167 164 161 161 161 166 176 179 179 179 203 237 235 219 230 231 246 249 248 242 225 216 212 220 222 219 221 220 226
259 250 244 253 261 260 241 228 198 172 184 175 173 171 165 160 161 165 164 166 170 167 162 166 172 173 176 182 198 177 186 210 227 249 259 246 249 265 262 254 230 221 219 217 223 225 210 216 224
208 218 242 257 268 272 264 237 59 156 171 174 176 156 149 157 160 159 154 153 162 160 157 164 165 168 173 179 191 183 183 193 211 225 248 257 252 243 244 247 243 227 222 223 221 233 226 223 226
242 238 234 249 255 263 275 273 79 127 144 154 150 135 132 146 153 151 148 148 148 152 158 158 163 165 166 170 183 184 191 196 215 223 246 254 260 256 249 248 247 239 231 232 231 230 230 229 232